When you browse on this site, cookies collect data to enhance your experience and personalize the content and advertising you see.
Visit our Privacy Policy to learn more. By continuing to use the site, you agree to this use of cookies and data.
  • In United Kingdom
  • List of Countries
  • For 7 days
  • Water Temperature
  • Satellite Maps
  • Weather Map
  • Weather Widgets
  • user-avatar
    Login

    Hourly Weather Lingolsheim

    Today, 16 February, Saturday

    Time Temperature Precipitation Wind Pressure Humidity
    00:00 +7°C° 0 mm 1 mps 758 mmHg 66%
    01:00 +7°C° 0 mm 1 mps 758 mmHg 64%
    02:00 +6°C° 0 mm 1 mps 758 mmHg 63%
    03:00 +6°C° 0 mm 1 mps 758 mmHg 62%
    04:00 +6°C° 0 mm 1 mps 758 mmHg 60%
    05:00 +6°C° 0 mm 1 mps 758 mmHg 60%
    06:00 +6°C° 0 mm 1 mps 758 mmHg 59%
    07:00 +6°C° 0 mm 1 mps 758 mmHg 58%
    08:00 +7°C° 0 mm 1 mps 758 mmHg 57%
    09:00 +8°C° 0 mm 1 mps 758 mmHg 55%
    10:00 +10°C° 0 mm 1 mps 758 mmHg 53%
    11:00 +12°C° 0 mm 1 mps 758 mmHg 48%
    12:00 +14°C° 0 mm 1 mps 758 mmHg 43%
    13:00 +16°C° 0 mm 2 mps 758 mmHg 39%
    14:00 +16°C° 0 mm 1 mps 757 mmHg 41%
    15:00 +16°C° 0 mm 1 mps 757 mmHg 44%
    16:00 +16°C° 0 mm 1 mps 757 mmHg 46%
    17:00 +14°C° 0 mm 1 mps 757 mmHg 50%
    18:00 +12°C° 0 mm 1 mps 757 mmHg 55%
    19:00 +11°C° 0 mm 1 mps 757 mmHg 59%
    20:00 +10°C° 0 mm 1 mps 757 mmHg 59%
    21:00 +9°C° 0 mm 1 mps 757 mmHg 60%
    22:00 +9°C° 0 mm 1 mps 757 mmHg 60%
    23:00 +8°C° 0 mm 1 mps 757 mmHg 60%

    Tomorrow, 17 February, Sunday

    Time Temperature Precipitation Wind Pressure Humidity
    00:00 +8°C° 0 mm 1 mps 757 mmHg 60%
    01:00 +8°C° 0 mm 1 mps 757 mmHg 60%
    02:00 +7°C° 0 mm 1 mps 756 mmHg 61%
    03:00 +7°C° 0 mm 1 mps 756 mmHg 62%
    04:00 +7°C° 0 mm 1 mps 756 mmHg 63%
    05:00 +6°C° 0 mm 2 mps 756 mmHg 63%
    06:00 +6°C° 0 mm 2 mps 756 mmHg 63%
    07:00 +5°C° 0 mm 2 mps 755 mmHg 63%
    08:00 +7°C° 0 mm 2 mps 755 mmHg 59%
    09:00 +9°C° 0 mm 1 mps 756 mmHg 56%
    10:00 +10°C° 0 mm 1 mps 756 mmHg 53%
    11:00 +12°C° 0 mm 2 mps 755 mmHg 48%
    12:00 +14°C° 0 mm 2 mps 755 mmHg 42%
    13:00 +16°C° 0 mm 2 mps 755 mmHg 36%
    14:00 +16°C° 0 mm 2 mps 754 mmHg 38%
    15:00 +16°C° 0 mm 2 mps 754 mmHg 40%
    16:00 +18°C° 0 mm 1 mps 753 mmHg 41%
    17:00 +15°C° 0 mm 1 mps 754 mmHg 46%
    18:00 +13°C° 0 mm 1 mps 754 mmHg 50%
    19:00 +11°C° 0 mm 1 mps 754 mmHg 54%
    20:00 +10°C° 0 mm 1 mps 754 mmHg 56%
    21:00 +10°C° 0 mm 1 mps 754 mmHg 57%
    22:00 +9°C° 0 mm 1 mps 754 mmHg 59%
    23:00 +9°C° 0 mm 1 mps 754 mmHg 60%

    Day after tomorrow, 18 February, Monday

    Time Temperature Precipitation Wind Pressure Humidity
    00:00 +8°C° 0 mm 1 mps 754 mmHg 60%
    01:00 +8°C° 0 mm 1 mps 754 mmHg 61%
    02:00 +7°C° 0 mm 1 mps 753 mmHg 61%
    03:00 +7°C° 0 mm 1 mps 753 mmHg 62%
    04:00 +7°C° 0 mm 1 mps 753 mmHg 63%
    05:00 +7°C° 0 mm 1 mps 753 mmHg 63%
    06:00 +6°C° 0 mm 1 mps 753 mmHg 64%
    07:00 +6°C° 0 mm 1 mps 753 mmHg 64%
    08:00 +7°C° 0 mm 1 mps 753 mmHg 62%
    09:00 +9°C° 0 mm 1 mps 753 mmHg 59%
    10:00 +10°C° 0 mm 1 mps 753 mmHg 56%
    11:00 +12°C° 0 mm 1 mps 753 mmHg 51%
    12:00 +13°C° 0 mm 1 mps 752 mmHg 46%
    13:00 +15°C° 0 mm 1 mps 752 mmHg 41%
    14:00 +15°C° 0 mm 1 mps 752 mmHg 42%
    15:00 +15°C° 0 mm 1 mps 751 mmHg 43%
    16:00 +16°C° 0 mm 1 mps 751 mmHg 43%
    17:00 +14°C° 0 mm 1 mps 751 mmHg 48%
    18:00 +12°C° 0 mm 1 mps 751 mmHg 52%
    19:00 +10°C° 0 mm 1 mps 752 mmHg 57%
    20:00 +10°C° 0 mm 1 mps 752 mmHg 60%
    21:00 +9°C° 0 mm 1 mps 752 mmHg 63%
    22:00 +8°C° 0 mm 1 mps 752 mmHg 66%
    23:00 +8°C° 0 mm 1 mps 752 mmHg 66%

    19 February, Tuesday

    Time Temperature Precipitation Wind Pressure Humidity
    00:00 +8°C° 0 mm 1 mps 752 mmHg 67%
    01:00 +6°C° 0 mm 2 mps 752 mmHg 67%
    02:00 +6°C° 0 mm 2 mps 752 mmHg 68%
    03:00 +6°C° 0 mm 2 mps 752 mmHg 69%
    04:00 +5°C° 0 mm 2 mps 752 mmHg 70%
    05:00 +5°C° 0 mm 2 mps 752 mmHg 72%
    06:00 +5°C° 0 mm 2 mps 753 mmHg 74%
    07:00 +5°C° 0 mm 2 mps 753 mmHg 76%
    08:00 +6°C° 0 mm 2 mps 753 mmHg 73%
    09:00 +7°C° 0 mm 2 mps 753 mmHg 69%
    10:00 +8°C° 0 mm 2 mps 753 mmHg 66%
    11:00 +10°C° 0 mm 2 mps 753 mmHg 62%
    12:00 +12°C° 0 mm 2 mps 753 mmHg 59%
    13:00 +12°C° 0 mm 3 mps 753 mmHg 55%
    14:00 +14°C° 0 mm 2 mps 753 mmHg 56%
    15:00 +14°C° 0 mm 2 mps 753 mmHg 58%
    16:00 +14°C° 0 mm 2 mps 753 mmHg 59%
    17:00 +13°C° 0 mm 2 mps 753 mmHg 66%
    18:00 +12°C° 0 mm 1 mps 753 mmHg 72%
    19:00 +11°C° 0 mm 1 mps 754 mmHg 79%
    20:00 +10°C° 0 mm 1 mps 754 mmHg 80%
    21:00 +10°C° 0 mm 1 mps 754 mmHg 82%
    22:00 +9°C° 0 mm 1 mps 755 mmHg 84%
    23:00 +9°C° 0 mm 1 mps 755 mmHg 85%

    20 February, Wednesday

    Time Temperature Precipitation Wind Pressure Humidity
    00:00 +9°C° 0 mm 1 mps 755 mmHg 85%
    01:00 +8°C° 0 mm 1 mps 755 mmHg 86%
    02:00 +8°C° 0 mm 1 mps 755 mmHg 86%
    03:00 +8°C° 0 mm 1 mps 755 mmHg 87%
    04:00 +7°C° 0 mm 1 mps 755 mmHg 87%
    05:00 +7°C° 0 mm 1 mps 755 mmHg 87%
    06:00 +7°C° 0 mm 1 mps 755 mmHg 87%
    07:00 +7°C° 0 mm 1 mps 755 mmHg 88%
    08:00 +8°C° 0 mm 1 mps 755 mmHg 83%
    09:00 +9°C° 0 mm 1 mps 756 mmHg 79%
    10:00 +10°C° 0 mm 1 mps 756 mmHg 75%
    11:00 +11°C° 0 mm 1 mps 756 mmHg 70%
    12:00 +12°C° 0 mm 2 mps 756 mmHg 66%
    13:00 +13°C° 0 mm 2 mps 756 mmHg 62%
    14:00 +13°C° 0 mm 2 mps 756 mmHg 60%
    15:00 +14°C° 0 mm 1 mps 756 mmHg 59%
    16:00 +14°C° 0 mm 1 mps 755 mmHg 58%
    17:00 +13°C° 0 mm 1 mps 756 mmHg 63%
    18:00 +11°C° 0 mm 1 mps 756 mmHg 69%
    19:00 +10°C° 0 mm 1 mps 756 mmHg 75%
    20:00 +10°C° 0 mm 1 mps 756 mmHg 77%
    21:00 +9°C° 0 mm 1 mps 757 mmHg 79%
    22:00 +9°C° 0 mm 1 mps 757 mmHg 81%
    23:00 +8°C° 0 mm 1 mps 757 mmHg 82%

    21 February, Thursday

    Time Temperature Precipitation Wind Pressure Humidity
    00:00 +8°C° 0 mm 1 mps 757 mmHg 82%
    01:00 +8°C° 0 mm 1 mps 757 mmHg 83%
    02:00 +8°C° 0 mm 1 mps 757 mmHg 84%
    03:00 +7°C° 0 mm 1 mps 757 mmHg 84%
    04:00 +7°C° 0 mm 1 mps 757 mmHg 85%
    05:00 +7°C° 0 mm 1 mps 757 mmHg 85%
    06:00 +7°C° 0 mm 1 mps 757 mmHg 85%
    07:00 +7°C° 0 mm 1 mps 757 mmHg 86%
    08:00 +8°C° 0 mm 1 mps 757 mmHg 80%
    09:00 +9°C° 0 mm 1 mps 758 mmHg 75%
    10:00 +10°C° 0 mm 1 mps 758 mmHg 70%
    11:00 +12°C° 0 mm 1 mps 758 mmHg 65%
    12:00 +13°C° 0 mm 1 mps 757 mmHg 60%
    13:00 +14°C° 0 mm 1 mps 757 mmHg 55%
    14:00 +14°C° 0 mm 1 mps 757 mmHg 54%
    15:00 +15°C° 0 mm 1 mps 757 mmHg 53%
    16:00 +14°C° 0 mm 0 mps 756 mmHg 53%
    17:00 +12°C° 0 mm 0 mps 756 mmHg 58%
    18:00 +11°C° 0 mm 0 mps 757 mmHg 64%
    19:00 +10°C° 0 mm 0 mps 757 mmHg 70%
    20:00 +9°C° 0 mm 0 mps 757 mmHg 73%
    21:00 +9°C° 0 mm 0 mps 757 mmHg 76%
    22:00 +8°C° 0 mm 0 mps 758 mmHg 79%
    23:00 +8°C° 0 mm 0 mps 758 mmHg 80%
    Show more